SL-14 DEB

Satellite information

Favourite Embed

Satellite Type and Status

DEBRISIN ORBIT

Key statistics

Satellite SL-14 DEB at a glance.

Uptime

13838

Days in orbit

Revolutions

≈ 14.1

Per day

Orbit

LEO

Low Earth Orbit

Inclination

82.5

Latest

Satellite identification and parameters

Extended collection of information and parameters for SL-14 DEB.

Object identification

Identified? True

Debris? True

Object name: SL-14 DEB

International designator: 1987-068DM

Object number (NORAD): 39985

Object ID (CCSDS): 39985

Country: COMMONWEALTH OF INDEPENDENT STATES (CIS)

Current information (Y/N): Y

RCS size: SMALL

Orbital parameters

Period: 102.032 minutes

Inclination: 82.5202 deg

SMA: 7232.982 km

Apoapsis: 860.714 km

Periapsis: 848.979 km

RAAN: 12.5881 deg

Eccentricy: 0.0008112

Argument of periapsis: 145.3454 deg

Mean anomaly: 214.8252 deg

Mean motion: 14.11324004 rev/day

Mean motion (dot): 0.00001421 rev/day2

B* drag term: 0.00077764 1/REarth

Two-line elements (TLE)

Creation date: July 5, 2025, 4:36 a.m.

Reference frame: TEME

Reference center: EARTH

Epoch: July 4, 2025, 7:02 p.m. UTC

TLE line 0: 0 SL-14 DEB

TLE line 1: 1 39985U 87068DM 25185.79354471 .00001421 00000-0 77764-3 0 9996

TLE line 2: 2 39985 82.5202 12.5881 0008112 145.3454 214.8252 14.11324004549415

Live tracking on map

Real-time ground track for satellite SL-14 DEB.

In-orbit conjunctions

A list of the most updated potential collisions computed for object SL-14 DEB.

Target Orbit TCA Probability of collision Miss distance Type
FENGYUN 1C DEB * SSO 2025-04-12 04:35:51 0.0001307787 96.0 (m) DEBRIS
CZ-6A DEB LEO 2024-12-02 22:54:47 0.000115999 567.0 (m) DEBRIS
CZ-6A DEB SSO 2024-06-30 14:38:32 0.0001220613 348.0 (m) DEBRIS

Associated space launch

Second generation soviet meteorological satellite

SL-14 DEB was lifted into orbit during the mission ‘Tsiklon-3 | Meteor-2 16’, on board a Tsiklon-3 space rocket.

The launch took place on Aug. 18, 1987, 2:27 a.m. from 32/1.

For more information about the launch, click the button.

Launch to space Tsiklon-3 | Meteor-2 16
Tsiklon-3 | Meteor-2 16

Agency: N/A

Status: Launch Successful

Launch date: Aug. 18, 1987, 2:27 a.m. UTC

Rocket: Tsiklon-3

Launch pad: 32/1

Location: Plesetsk Cosmodrome, Russian Federation

...

Latest news about this satellite

There are no fresh news available about this satellite. Check back as we update our databases every day.


Newsletter sign-up

Weekly statistics, charts and insights to help you stay on top of the space industry.